Lapse_Rate
6.5 6.5 6.5 6.5 6.5 6.5 6.5 6.5 6.5 6.5 6.5 6.5 6.5 6.5 6.8 7.1 7.1 7.1 7.3 6.9 6.6 6.0 5.2 4.8 5.3 5.4 4.0 2.8 1.8 0.6 -0.2 -0.3 -0.1 0.8 4.2 3.8 4.0 4.4 4.4 4.7 4.7 5.4 5.9 5.7
6.5 6.5 6.5 6.5 6.5 6.5 6.5 6.5 6.5 6.5 6.5 6.5 6.9 7.1 7.0 7.1 7.2 7.1 7.1 6.9 6.1 5.4 4.8 4.4 4.4 5.0 5.0 3.2 2.6 2.1 0.8 -0.6 -0.8 -1.1 -0.6 2.2 4.4 4.8 4.6 5.2 5.4 5.6 5.2 5.5
6.5 6.5 6.5 6.5 6.5 6.5 6.5 6.5 6.5 6.5 6.5 6.5 6.5 6.6 6.9 7.0 7.1 7.0 7.0 6.8 6.0 5.4 4.8 4.7 4.1 4.2 4.1 3.6 2.8 2.9 2.4 2.1 0.5 -1.0 -1.4 -1.4 -0.9 1.9 3.1 4.7 3.8 3.5 2.2 1.2
6.5 6.5 6.5 6.5 6.5 6.5 6.5 6.5 6.5 6.5 6.5 6.6 6.7 6.9 7.1 6.8 6.7 6.5 6.5 6.9 6.1 5.5 4.8 4.3 4.3 3.7 3.8 2.7 2.3 2.1 2.6 2.6 1.8 1.2 0.8 -0.1 -1.7 -2.8 -2.6 -2.1 -1.4 -1.4 -1.8 -1.9
6.5 6.5 6.5 6.5 6.5 6.5 6.5 6.5 6.5 6.5 6.5 6.8 7.0 7.0 7.0 7.0 6.2 6.0 5.9 6.8 6.6 6.6 5.6 5.1 4.4 4.6 3.4 2.9 2.4 1.5 1.5 2.3 2.2 1.5 1.8 1.7 0.8 -0.6 -1.7 -3.5 -3.7 -3.8 -3.7 -3.8
6.5 6.5 6.5 6.5 6.5 6.9 6.6 6.5 6.7 6.8 6.6 6.7 7.1 6.5 6.5 6.9 6.3 5.9 6.0 7.2 7.4 6.7 6.5 5.3 5.6 5.7 4.9 3.1 2.6 2.0 1.5 1.9 1.8 0.9 1.1 1.7 1.8 1.1 1.2 1.6 -1.0 1.0 -1.1 -1.4
6.5 6.5 6.5 6.5 6.7 6.7 6.5 6.5 7.1 7.1 6.9 6.9 6.5 6.7 6.8 6.3 6.2 6.0 6.4 8.4 8.8 7.3 6.6 6.9 6.1 5.9 6.0 5.4 4.0 3.1 1.8 0.9 0.6 0.5 1.0 1.1 1.8 0.9 0.9 1.4 0.5 0.7 -0.1 -0.2
6.5 6.5 6.5 6.9 6.7 6.5 6.7 7.0 7.0 6.9 7.1 7.0 7.1 7.1 7.0 6.1 6.6 7.3 7.0 8.1 8.6 8.2 7.1 6.5 6.2 5.7 5.8 6.0 6.3 4.8 2.9 1.4 0.4 -0.2 0.3 0.4 0.7 1.3 1.0 1.3 1.5 1.1 0.3 0.2
6.5 6.5 6.7 7.0 6.9 6.7 6.8 6.8 6.9 7.4 7.8 7.7 7.3 7.3 7.3 6.9 7.0 7.6 7.7 7.8 8.5 8.1 7.4 6.7 6.4 5.9 5.3 5.7 7.4 6.6 4.0 2.5 1.6 1.0 0.7 0.8 0.3 0.1 0.7 1.0 1.7 0.8 0.5 -0.2
6.5 6.5 6.6 7.0 7.4 7.6 7.9 7.8 7.8 7.3 7.1 7.8 7.6 7.6 7.1 7.4 7.5 7.6 7.9 7.6 7.6 7.5 7.0 7.1 7.2 6.4 5.7 5.5 6.5 6.9 6.6 4.9 3.3 2.0 1.6 1.4 1.1 1.0 1.2 1.1 1.3 1.9 1.5 1.4
6.5 6.6 7.0 7.2 7.4 7.7 7.8 7.5 7.5 7.7 7.1 7.2 7.4 7.4 7.4 7.5 7.9 7.9 7.9 7.7 7.3 7.2 6.9 6.6 7.2 6.5 5.9 6.2 6.2 6.4 6.6 6.6 6.3 4.8 3.7 2.7 2.0 2.3 2.5 2.6 2.8 2.6 3.3 3.0
6.5 6.7 6.7 6.9 7.6 7.9 7.6 7.4 7.3 7.4 7.7 7.7 7.7 7.9 7.5 7.7 8.1 8.3 8.2 7.6 6.9 6.6 6.2 5.8 5.6 4.9 4.8 6.2 6.6 6.0 5.9 6.1 6.1 6.4 5.2 4.6 3.9 3.0 4.3 4.4 5.0 4.9 4.9 4.0
6.3 6.3 6.2 6.9 7.8 8.1 7.2 7.8 8.0 7.8 7.7 8.0 8.0 7.9 7.9 7.2 7.2 6.8 7.3 7.5 6.8 6.1 5.2 4.4 4.1 4.0 4.2 4.8 6.6 6.6 6.0 6.2 6.0 6.1 6.3 6.3 4.9 4.2 3.2 4.0 5.2 4.8 5.1 5.6
7.4 7.4 7.1 7.1 7.4 8.1 8.3 7.9 8.0 8.0 7.9 7.6 8.0 8.1 7.5 7.0 6.8 6.2 5.9 7.2 6.4 5.0 4.1 3.8 3.6 3.2 3.7 4.2 5.9 5.7 5.6 6.3 5.3 5.4 5.6 5.7 6.0 6.0 4.7 4.0 3.7 4.3 6.0 5.9
7.2 6.8 7.2 7.3 7.8 7.5 7.6 7.2 7.3 7.3 7.4 7.3 7.2 7.8 7.5 6.7 6.3 6.2 5.6 5.4 5.2 4.2 3.4 3.0 2.9 2.8 3.4 3.8 4.2 6.2 5.9 6.1 6.3 5.8 5.8 5.6 5.5 5.4 5.0 4.5 4.0 4.0 4.1 4.7
7.7 7.8 7.1 6.7 6.8 6.5 6.3 6.9 6.3 6.7 6.2 5.7 5.5 5.9 7.6 6.6 5.8 5.4 5.3 4.6 3.7 3.0 2.9 1.0 2.3 2.3 4.2 4.0 3.8 6.3 6.5 6.1 6.2 5.6 5.6 5.6 5.7 4.9 4.3 3.6 3.3 3.5 3.8 4.2
6.5 6.3 6.2 5.8 6.0 6.5 6.5 6.3 5.9 5.7 5.3 4.6 4.2 4.2 5.0 5.7 4.7 4.3 4.3 4.9 3.7 2.4 3.4 2.6 1.7 1.5 3.5 3.6 3.8 5.9 6.5 4.3 4.6 5.2 5.7 5.5 5.7 5.9 3.8 3.7 3.6 3.3 4.0 4.5
6.0 5.4 5.6 5.7 5.9 6.7 6.6 6.1 5.1 4.3 3.5 3.3 2.7 1.0 -0.1 0.2 1.5 1.7 1.9 2.8 2.8 1.3 1.3 0.2 1.2 2.2 2.2 2.6 3.5 4.4 5.7 5.0 5.2 5.5 4.1 4.8 5.7 6.0 5.5 5.4 4.2 4.3 4.9 4.7
5.7 5.4 5.6 6.0 5.9 5.5 4.9 4.0 3.3 2.9 1.7 0.8 -0.3 -1.5 -2.0 -2.2 -0.7 -1.2 0.4 0.5 -0.2 -0.2 1.5 -0.4 4.6 1.7 1.9 3.5 4.1 4.9 5.1 5.7 4.9 5.1 5.4 3.6 3.3 5.0 5.3 4.7 4.4 4.7 4.6 4.4
6.2 4.9 3.8 4.4 5.3 4.5 3.5 3.2 2.1 0.6 -0.8 -1.4 -2.9 -2.8 -2.9 -2.8 -2.8 -2.6 -2.1 1.3 1.0 0.6 -0.1 1.0 2.0 1.9 2.5 3.9 2.6 5.8 5.5 5.5 6.3 6.3 5.1 4.6 5.3 3.9 3.4 3.8 4.5 3.1 2.3 2.5
2.6 2.1 1.2 1.0 0.0 -0.5 -1.4 -2.2 -2.0 -2.9 -3.6 -5.0 -3.5 -3.0 -2.6 -1.6 -1.1 -1.1 1.2 4.4 3.1 1.2 4.3 3.3 2.6 2.2 3.4 3.2 4.6 4.4 4.2 4.4 5.1 5.8 5.5 6.1 5.7 4.6 3.4 2.9 3.0 3.9 4.5 4.8
0.5 -0.2 -1.3 -1.3 -0.5 -1.8 -2.5 -2.4 -2.3 -3.2 -2.6 -2.4 -2.8 -3.2 -2.5 1.7 1.2 2.1 0.5 2.9 3.6 2.0 4.5 3.5 2.9 1.2 3.2 2.4 5.8 5.1 5.5 4.5 4.1 4.1 4.0 4.0 5.3 5.8 5.2 4.7 5.1 5.4 4.8 3.5
0.1 -0.2 -0.3 -1.1 -0.3 -0.0 -1.1 -1.0 -1.9 -1.7 -1.9 -2.0 -1.6 -0.8 0.4 2.7 4.0 3.6 4.6 4.0 4.4 3.2 4.7 2.6 2.4 2.3 2.3 3.8 2.8 3.3 4.5 4.6 4.7 4.0 0.8 1.0 0.6 2.2 2.4 2.5 4.3 2.7 2.4 3.8
0.5 0.8 -0.2 0.5 1.4 2.5 1.5 0.3 0.8 1.9 -0.4 0.1 -0.2 -0.7 1.9 1.8 1.7 5.6 5.1 3.6 2.8 0.7 1.2 1.9 1.6 3.2 3.7 3.2 1.2 0.9 4.2 0.7 -0.1 1.9 4.8 4.2 0.9 1.1 1.9 0.4 2.2 4.3 1.9 0.8
1.6 1.1 1.2 0.8 2.7 3.2 4.9 3.8 3.3 3.7 3.9 4.9 4.9 5.2 4.4 5.4 2.6 2.7 2.5 2.9 4.3 4.0 2.4 4.8 4.8 4.0 1.1 3.9 1.0 1.0 1.0 3.8 1.2 0.4 0.1 0.1 2.6 1.6 1.8 2.5 0.6 -0.1 0.1 1.1
3.3 3.5 3.3 3.5 5.0 5.3 5.5 5.9 5.0 5.7 6.4 5.9 6.6 5.3 3.8 3.0 2.7 3.3 3.6 4.0 3.7 5.4 3.0 1.5 3.8 3.5 0.9 1.5 0.8 2.4 4.2 3.1 5.2 3.4 1.4 2.0 4.1 2.0 4.3 2.4 -0.4 2.0 3.9 5.0
5.9 6.0 5.7 5.4 5.8 5.7 5.1 4.1 2.9 2.8 2.4 0.8 3.4 6.4 4.9 2.4 1.4 3.1 3.4 3.1 4.4 2.3 2.0 3.0 3.2 4.2 4.2 2.0 0.4 2.7 4.5 5.2 6.8 5.0 4.0 2.0 3.4 3.7 5.6 5.5 5.8 6.9 6.8 6.4
Wind_Speed
13 10 14 10 15 9 9 7 7 8 17 12 14 14 14 13 13 15 16 15 14 15 15 16 17 16 16 16 17 16 15 15 14 14 5 4 10 11 11 9 7 6 6 5
13 16 20 15 22 19 19 15 10 13 10 9 12 12 15 15 16 15 14 14 15 15 17 16 17 16 15 16 18 17 16 16 14 16 14 11 9 9 11 10 9 8 8 5
4 10 10 13 19 21 22 20 12 10 6 7 13 15 15 14 14 13 12 12 13 14 14 15 15 14 15 14 15 16 16 15 16 16 16 15 15 10 6 5 8 6 9 10
2 6 5 7 15 21 24 19 18 15 10 11 14 13 13 12 12 12 11 9 10 10 13 13 14 14 13 13 14 14 16 16 16 17 17 16 16 15 14 10 10 9 9 10
3 3 5 11 14 9 5 12 18 15 13 8 8 5 13 14 11 10 10 9 7 9 8 12 14 14 13 14 13 15 14 15 14 17 16 15 15 15 13 13 13 12 9 10
1 4 4 6 19 14 5 7 14 14 14 15 6 5 4 9 9 10 9 11 8 10 11 13 14 12 13 14 15 15 15 13 14 15 14 14 12 12 13 10 14 8 12 10
5 4 3 14 19 13 3 3 7 10 11 12 7 4 2 4 3 4 5 10 10 11 12 13 14 13 13 12 14 12 11 13 15 14 12 11 11 12 10 8 12 10 13 12
4 4 4 20 7 6 4 6 8 8 9 9 9 6 3 3 5 9 10 12 13 11 12 13 15 14 14 13 9 9 11 12 14 15 12 11 12 9 9 8 9 10 12 10
5 4 4 8 10 10 8 6 6 7 7 7 6 6 8 7 9 10 11 11 12 12 12 13 14 14 14 14 11 8 10 12 13 13 12 11 11 11 9 9 7 8 8 8
3 5 8 8 8 9 7 5 6 8 10 8 9 10 10 9 9 10 10 11 11 11 12 13 13 14 14 14 13 10 10 10 9 11 12 11 8 9 8 8 8 7 6 7
5 8 9 7 7 6 8 8 10 10 10 10 10 11 11 10 9 9 10 10 11 11 11 12 13 13 14 14 12 11 10 9 7 7 8 9 11 9 9 11 8 6 5 5
2 5 5 5 5 6 6 7 9 9 11 11 11 11 11 10 10 10 10 10 10 11 11 11 11 12 14 14 12 10 9 8 7 4 4 5 6 8 21 18 20 21 18 9
4 8 10 7 3 3 6 7 11 11 11 11 11 11 12 10 10 13 11 10 10 11 11 11 11 12 13 13 10 11 8 8 6 7 5 3 4 5 6 10 19 20 21 21
7 8 6 5 4 4 4 11 14 12 11 11 10 10 10 10 9 10 10 10 10 10 10 11 11 12 13 13 10 9 9 8 4 4 5 5 5 5 4 4 4 5 15 14
8 9 9 6 5 6 8 12 12 10 9 10 10 8 9 9 9 8 8 9 10 10 10 10 11 12 12 12 11 6 7 6 5 5 4 4 4 5 5 6 5 5 5 5
9 7 6 7 9 10 11 10 11 9 9 9 8 9 8 9 8 8 8 7 9 8 8 7 10 10 10 11 11 7 5 9 7 5 4 5 4 4 5 5 5 4 5 5
7 7 8 9 9 9 8 8 9 8 8 8 8 8 8 8 9 8 6 6 5 3 5 7 8 7 8 9 9 6 5 3 5 4 5 5 4 3 3 4 4 3 5 5
11 10 11 12 10 9 9 10 9 9 8 6 6 5 5 5 4 4 5 4 4 5 6 6 6 9 7 10 11 4 5 4 4 4 3 5 5 4 4 3 2 3 5 7
12 12 12 12 11 11 9 9 8 7 5 4 5 4 2 2 2 3 4 5 5 4 6 6 11 9 10 11 10 5 5 5 4 4 3 4 4 5 4 4 4 4 4 4
12 13 12 12 11 10 9 7 7 6 4 4 4 5 4 4 3 4 2 3 2 3 4 5 6 7 9 11 10 5 6 6 6 5 4 4 3 4 3 5 4 4 3 3
9 9 9 8 7 7 6 5 5 4 2 4 4 1 3 5 3 3 5 2 4 4 5 5 5 5 5 7 5 4 5 5 5 6 6 5 4 4 3 3 3 3 3 3
6 6 6 6 6 5 4 4 4 4 3 2 2 3 4 5 1 3 2 2 1 5 2 2 3 6 6 9 4 4 4 4 4 4 4 4 5 5 4 3 3 4 4 3
6 5 5 5 6 6 4 4 4 4 4 4 4 3 2 3 2 2 2 2 1 3 1 2 6 7 10 4 3 4 4 4 4 4 3 3 2 2 2 2 3 2 3 3
5 5 4 3 6 4 4 4 5 5 5 5 5 5 3 1 2 2 3 3 1 2 1 1 4 7 8 2 3 3 3 3 3 3 3 4 3 3 3 3 4 3 2 2
6 5 4 4 3 4 6 6 5 6 7 7 7 6 6 2 3 2 2 2 3 2 2 6 5 6 2 2 2 3 2 0 1 1 2 2 2 1 2 3 2 0 1 2
6 4 4 6 5 2 3 4 1 1 2 2 2 4 2 2 3 1 2 3 3 2 3 2 3 3 1 1 2 3 3 2 1 1 1 1 2 2 1 1 1 3 4 5
5 5 5 3 3 2 3 3 3 2 2 3 2 1 3 2 3 1 1 2 2 2 1 1 2 4 3 2 2 4 3 2 1 2 2 2 3 2 1 2 4 4 3 1
Wind_Direction
310 233 82 37 63 61 118 89 63 74 73 54 48 49 44 42 34 32 27 18 9 4 359 1 360 1 7 15 7 6 5 20 5 0 311 146 137 139 142 139 149 141 145 145
54 96 75 75 69 59 59 77 91 90 82 64 67 59 45 34 32 25 20 13 7 1 360 359 359 359 359 18 16 9 15 18 15 20 12 357 138 159 135 140 145 140 133 135
353 315 103 66 70 69 62 51 54 54 62 92 64 57 43 31 29 20 12 14 8 4 1 358 354 352 1 3 29 17 17 16 26 28 26 14 22 52 42 106 91 78 102 105
345 337 52 90 50 79 70 42 38 50 93 99 103 83 56 36 25 13 356 1 11 9 4 358 0 360 360 10 14 28 16 18 27 34 33 27 31 26 36 42 50 71 71 78
117 4 133 41 14 350 41 48 21 42 38 126 150 104 45 27 18 7 355 359 34 28 12 6 7 7 9 12 18 24 19 11 22 39 33 33 36 37 32 54 46 47 44 59
284 67 47 8 329 314 265 52 12 38 36 27 126 53 19 8 8 9 355 3 51 37 22 20 10 8 20 22 16 19 19 4 20 38 33 31 31 50 53 24 68 29 51 33
30 96 74 354 330 317 86 30 23 36 54 54 67 82 50 354 331 314 328 39 44 46 33 22 12 14 18 29 28 12 17 25 24 28 35 25 19 46 46 28 63 52 54 32
360 55 24 354 20 57 85 56 38 39 63 81 92 91 94 277 9 40 25 25 37 47 36 25 18 15 16 15 23 29 31 33 34 33 31 25 29 18 41 37 49 54 60 42
27 78 68 33 58 59 65 64 46 46 57 78 94 85 66 43 41 36 36 30 36 43 39 27 18 17 14 5 9 25 41 41 39 37 37 32 33 31 39 34 38 55 46 71
139 86 76 76 67 55 51 54 84 56 33 50 64 77 61 48 47 40 34 38 35 40 38 31 19 12 11 5 7 24 33 56 46 51 46 37 37 39 42 41 39 41 52 49
89 127 109 73 62 68 53 30 42 77 56 43 61 71 66 51 47 43 39 41 38 35 35 28 16 10 4 8 8 20 28 28 71 67 62 57 55 47 45 50 52 55 40 54
116 98 94 99 72 64 55 62 58 48 69 53 56 74 70 53 44 42 44 42 38 33 31 25 15 8 3 360 8 19 25 26 23 40 65 68 67 60 55 59 57 58 57 56
122 83 84 108 101 66 98 73 77 66 53 59 62 67 74 64 52 42 28 43 40 33 24 19 12 7 1 357 9 15 23 21 23 30 35 59 86 76 66 40 56 56 54 56
110 126 123 162 116 81 82 96 84 75 69 58 58 67 73 70 60 46 34 26 41 36 24 15 10 6 355 355 357 20 14 13 21 15 22 33 41 71 72 67 57 40 52 58
94 76 85 79 65 50 47 94 83 74 66 59 45 52 76 76 66 53 44 28 32 33 23 11 8 0 356 352 354 10 22 12 13 11 24 32 48 64 66 61 55 42 26 39
122 125 134 107 82 63 59 71 81 73 68 59 48 33 51 74 67 50 38 45 43 29 14 4 356 336 348 356 353 354 14 19 24 22 22 26 38 62 69 61 56 40 32 30
150 160 118 95 88 82 84 80 79 77 69 64 57 39 38 62 57 43 16 29 68 24 17 7 339 325 349 349 353 350 2 6 28 37 32 26 24 61 81 88 79 48 42 42
79 66 98 118 123 114 95 86 82 78 74 72 70 66 54 50 42 6 347 6 24 19 0 342 343 357 352 353 352 338 10 5 27 14 30 46 30 34 57 85 80 59 58 52
78 81 79 86 95 98 95 91 89 85 76 72 84 96 104 54 3 323 343 42 15 9 327 348 13 2 351 351 358 346 10 10 19 29 26 40 47 42 43 58 65 67 69 68
84 77 75 75 87 98 100 95 98 80 39 78 72 48 16 327 324 333 330 109 259 252 313 17 20 4 346 347 345 7 18 15 20 17 21 38 46 41 45 52 54 63 73 72
88 86 86 91 90 85 96 107 111 104 79 73 95 35 282 288 310 354 45 94 319 348 46 35 20 360 343 343 333 12 21 19 25 28 25 20 28 43 49 51 58 64 62 61
108 111 120 115 113 114 126 128 119 121 116 69 355 340 348 330 0 115 194 146 264 33 51 12 357 355 348 342 7 13 12 25 29 32 28 24 31 33 35 38 51 53 46 51
127 135 135 137 145 150 135 137 166 161 176 206 225 252 248 262 247 125 165 325 53 28 99 24 345 354 360 344 15 18 24 40 28 9 13 13 33 42 62 44 52 64 53 54
140 141 166 161 135 135 177 227 213 214 204 210 210 223 227 69 36 112 153 166 195 339 200 205 316 337 3 345 20 20 20 24 29 13 18 16 19 24 40 47 48 33 30 56
147 158 141 145 177 222 221 216 212 225 211 223 215 216 236 190 148 221 146 188 246 281 200 218 246 301 351 49 9 347 325 206 294 35 12 4 334 22 94 107 120 138 359 16
154 169 185 195 220 207 194 171 213 318 180 294 172 157 176 143 142 185 167 228 251 252 268 240 219 231 284 282 318 327 300 318 31 219 229 326 353 333 108 137 46 65 101 130
196 188 193 205 219 180 120 115 87 79 82 85 71 103 171 173 157 184 215 282 268 248 254 279 283 203 222 223 271 281 293 328 174 238 282 293 306 279 133 165 145 137 134 148